sat.trackr.live / text

‹ back to catalog

EXO-0

NORAD 59175 · 2023-174DK

PAYLOAD ACTIVE UNKNOWN

§ Identity

Operator
Country
FR
Launch date
2023-11-11
Launch site
AFWTR
Launch vehicle
Mass (kg)
RCS (m²)

External: N2YO · Heavens-Above · Gunter

§ Orbital elements

Epoch: 2026-05-24T15:49:41.206944Z

Period
93.86 min
Inclination
97.3819°
Eccentricity
0.0007661
Mean motion
15.34219042 rev/d
Perigee alt
458.0 km
Apogee alt
468.5 km
Semi-major
6,841.4 km
B*
2.2702e-4
RAAN
224.8041°
Arg perigee
248.4092°
Mean anomaly
111.6335°
Rev number
14,143

§ Raw data

EXO-01 59175U 23174DK  26144.65950471  .00007446  00000+0  22702-3 0  99942 59175  97.3819 224.8041 0007661 248.4092 111.6335 15.34219042141430

JSON: /api/v1/satellites/59175 · /tle

For live sub-satellite position, see the globe view (requires WebGL).

§ Visibility from observer

Set your observer location to see the next 7 days of passes ≥ 10°. The values pass through the URL so the page stays shareable.

No JS? Fill the form by hand. The geolocation button needs JavaScript.

§ Radio — SatNOGS DB

ModeDescriptionDownlinkUplink
GMSK UHF 4k8 Telemetry 401.360 MHz

1 transmitter · refreshed weekly from db.satnogs.org